Starlink 1777

operational
NORAD ID: 47122 Int'l Des: 2020-088 Owner: SPXS Country: US Constellation: starlink
LEOCIRCULARSTARLINK_TYPE

Über Starlink 1777

Beschreibung wird geladen...

Live-Position

3D-Globus wird geladen...

Nächste Überflüge

Höhenverlauf

Altitude vs Time

uPlot chart will show altitude changes over time

Zweizeiliger Elementsatz

1 47122U 20088A 26035.38491713 .00026904 00000-0 62188-3 0 9995
2 47122 53.0543 82.7941 0006068 24.8240 335.3055 15.42319472286939
Epoch: 4. Feb. 2026 • Age: 18 hours

Aktueller Status

Höhe 442.1 km
Geschwindigkeit 7.65 km/s
Subsatellitenpunkt 16.81°N, 65.48°E
Startdatum 25. Nov. 2020
Alter 5.1 years
Typ internet

Technische Details

Klassifizierung Payload
Masse 260.00 kg
Trockenmasse 248.00 kg
Gesamtmasse 260.00 kg
Länge 0.20 m
Durchmesser 2.80 m
Spannweite 9.00 m
Form Box + pan
Hersteller SPXS
Bus-Typ Starlink
Phasenstatus In Orbit
Besitzer/Staat SPXS/US

Große Konstellationen

Loading constellations...